Location: Allaines
(49.9632°N, 2.9458°E)
Time: 01:31:59
(UTC+00:00)

RESURS DK-1 - Pass Details

Date: 09 April 2020
Orbit: 557 x 561 km, 69.9° (Epoch: 03 June)

Event Time Altitude Azimuth Distance (km) Brightness Sun altitude
Rises 20:43:13 0° 330° (NNW) 2,762 7.2 -19.3°
Reaches altitude 10° 20:45:26 10° 333° (NNW) 1,861 6.0 -19.6°
Maximum altitude 20:49:36 71° 58° (ENE) 598 2.3 -20.1°
Enters shadow 20:50:15 58° 114° (ESE) 660 2.3 -20.2°
